CAPE
0 0 0 0 0 2 0 1 1 1 0 0 0 0 0 0 0 0 0 0 0 0 0 0 0 0 0 0 0 0 6 243 151 100 28 81 12 99 53 565 388 116 61 0 0 1 41 207 747 1170 690 644 332 301
0 0 0 0 0 0 1 1 1 1 1 0 0 0 0 0 0 0 0 0 0 0 0 0 0 0 0 0 0 0 40 266 184 41 43 128 59 283 459 223 490 220 466 680 754 668 269 194 202 155 233 406 357 381
0 1 0 0 0 1 1 1 1 0 1 1 0 0 0 0 0 0 0 0 0 0 0 0 0 0 0 0 0 0 0 0 165 42 228 260 300 391 255 228 610 659 516 719 652 402 93 110 113 124 172 206 186 80
0 0 0 0 0 1 1 1 1 1 1 1 1 0 0 0 0 0 0 0 0 0 0 0 0 0 0 0 0 0 0 5 22 25 146 153 191 206 395 427 488 390 373 132 60 46 35 99 148 102 140 175 165 165
0 0 0 0 0 0 1 1 1 1 1 2 2 0 0 0 0 0 0 0 0 0 0 0 0 0 0 0 0 0 0 0 0 4 3 47 148 211 346 400 227 115 103 73 32 91 34 100 185 199 128 143 232 279
0 0 0 0 1 0 1 1 1 1 1 2 1 0 0 0 0 0 0 0 0 0 0 0 0 0 0 0 0 0 0 0 0 0 0 0 1 49 216 309 337 198 97 150 81 94 52 48 132 216 162 121 245 361
0 0 0 0 0 0 0 1 1 1 1 1 1 0 0 0 0 0 0 0 0 0 0 0 0 0 0 0 0 0 0 0 0 0 0 0 0 9 70 188 144 229 234 225 238 169 64 71 12 104 53 310 329 394
0 0 0 0 0 0 0 0 1 1 1 0 0 0 0 0 0 0 0 0 0 0 0 0 0 0 0 0 0 0 0 0 0 0 0 0 0 0 5 112 152 201 313 183 220 196 57 136 287 228 60 184 283 238
0 0 0 0 0 0 1 0 1 0 1 1 0 0 0 0 0 0 0 0 0 0 0 0 0 0 0 0 0 0 0 0 0 0 0 0 0 0 58 169 187 111 242 280 193 194 221 214 53 64 138 274 34 77
0 0 0 0 0 0 1 6 0 1 0 0 0 0 0 0 0 0 0 0 0 0 0 0 0 0 0 0 0 0 0 0 0 0 0 0 0 102 31 109 108 89 118 173 145 122 69 74 172 95 69 67 193 184
0 0 0 0 0 0 13 0 1 0 0 0 0 0 0 0 0 3 0 0 0 0 0 0 0 0 0 0 0 0 0 0 0 0 0 0 2 49 81 115 232 344 252 122 99 57 85 159 165 211 262 95 105 43
0 0 0 0 0 0 2 1 0 0 0 0 0 2 4 6 1 0 0 0 0 0 0 0 0 0 0 0 4 0 10 0 7 0 0 0 214 212 58 129 295 386 354 337 320 255 240 253 210 258 271 135 98 216
0 0 0 0 0 1 3 0 0 0 0 0 0 0 4 2 1 0 0 0 0 0 0 0 0 0 0 47 40 0 0 11 0 0 0 3 306 130 195 146 249 396 428 439 405 362 346 369 336 313 397 381 301 163
0 0 0 0 0 1 0 0 0 0 0 2 4 0 3 5 1 0 0 0 0 0 0 0 0 26 11 22 13 5 12 0 0 0 0 9 244 178 224 210 219 234 280 385 429 394 444 497 515 482 428 358 217 129
0 0 0 0 0 2 2 0 0 0 0 2 11 1 0 0 4 1 1 0 1 1 0 1 13 41 49 25 6 5 0 0 0 0 0 119 275 283 326 345 348 322 301 268 265 278 332 367 429 447 400 270 79 0
2 0 0 0 0 5 2 1 1 0 5 8 35 10 0 0 0 0 0 0 1 0 0 11 47 31 21 27 3 0 0 0 0 1 108 404 399 363 354 310 350 189 32 3 42 122 139 233 267 311 247 29 0 0
14 4 0 0 0 3 3 0 0 1 4 17 54 6 1 0 0 3 8 14 1 1 0 8 17 28 30 0 0 0 1 17 39 87 210 257 205 220 334 312 280 116 43 13 27 87 150 251 286 187 120 8 0 0
4 0 9 0 24 3 1 1 0 2 4 14 34 13 3 2 24 30 21 42 19 22 25 38 62 3 0 0 0 24 91 45 69 146 117 317 233 242 323 349 250 108 19 74 99 115 186 117 135 126 15 7 2 3
78 57 6 17 8 0 3 1 2 2 4 32 18 7 7 86 79 69 96 60 131 176 85 44 33 5 2 103 89 124 57 25 23 37 110 249 339 365 369 334 283 71 98 133 144 189 157 94 85 39 9 18 12 1
46 9 14 8 11 4 0 2 0 1 32 27 13 32 65 145 102 131 134 131 145 73 50 42 59 88 77 80 132 81 29 7 0 2 14 48 134 290 389 305 189 108 19 91 143 9 98 51 26 52 9 4 21 7
23 25 23 7 4 8 7 6 1 2 46 18 3 0 0 33 131 93 84 132 100 89 73 116 98 94 109 139 200 158 227 175 142 140 143 128 120 6 182 240 135 9 1 94 127 92 1 16 25 45 28 24 20 30
11 12 16 11 4 6 2 18 9 2 7 7 0 2 71 59 41 40 53 61 60 73 68 94 101 140 126 120 165 234 193 96 30 0 0 0 3 18 16 16 12 5 18 98 93 181 127 65 62 36 25 42 11 26
6 3 3 3 3 1 5 1 8 15 21 34 39 22 33 20 25 24 15 27 30 48 42 96 298 314 263 296 195 137 149 133 39 11 0 0 5 1 4 9 47 74 64 50 135 161 77 31 22 11 10 0 18 28
1 1 5 6 3 2 1 0 0 0 1 16 7 7 32 13 22 27 19 26 46 99 44 72 66 74 115 131 110 123 143 63 26 17 6 15 21 46 17 46 48 61 37 56 54 231 67 45 18 30 70 93 81 50
1 0 2 0 0 0 0 0 0 0 0 0 0 0 12 9 2 12 16 17 18 30 58 131 89 32 31 32 32 108 152 43 73 55 39 17 26 35 38 52 53 34 18 41 75 31 42 58 56 75 83 69 48 73
0 9 1 0 0 0 0 0 0 0 0 0 0 0 0 0 0 3 26 45 40 77 90 125 99 64 95 56 12 101 104 49 128 80 10 20 34 40 21 19 20 20 8 18 31 47 53 60 64 79 64 81 56 47
1 5 4 5 0 0 0 0 0 1 1 2 3 1 0 2 10 18 41 95 167 198 188 118 109 56 73 84 102 94 15 86 186 54 33 30 9 29 40 34 36 45 64 70 88 98 101 78 79 75 69 83 74 69
1 3 0 0 3 0 2 10 12 14 11 4 1 3 4 7 21 51 94 109 117 133 150 122 117 95 117 122 97 107 66 102 160 161 105 62 67 58 90 80 102 82 94 94 82 77 79 78 71 80 69 80 67 40
2 0 1 1 0 0 9 14 17 13 9 20 11 9 25 27 36 54 25 16 10 22 39 54 108 60 84 91 154 121 103 123 76 34 58 32 26 36 81 79 82 87 78 114 84 60 74 81 71 74 67 66 56 56
0 0 0 0 4 6 11 25 17 10 0 0 0 5 14 17 32 36 69 79 54 28 25 12 12 18 26 50 88 86 95 77 13 71 40 36 33 42 38 153 149 113 104 111 106 82 10 13 31 32 43 47 30 24
0 0 0 2 4 1 0 3 10 3 0 0 3 20 26 46 32 16 41 80 31 18 43 55 62 52 62 58 66 45 11 17 82 139 108 72 72 64 46 57 104 41 10 44 39 22 26 45 68 106 105 79 74 45
0 0 0 0 2 12 27 19 40 28 25 11 11 13 3 17 21 12 4 21 40 29 7 23 37 44 43 23 28 26 13 31 16 20 16 0 1 34 178 108 69 45 22 12 6 20 31 30 19 8 2 7 78 137
8 6 8 14 17 1 2 5 3 14 16 19 19 23 24 2 2 32 54 69 72 58 59 59 111 115 119 120 82 98 60 104 121 46 23 7 3 0 5 32 28 10 11 24 39 32 16 27 38 22 2 0 11 33
CIN
0 0 0 0 -2 -15 0 0 0 0 0 0 0 0 0 0 0 0 0 0 0 0 0 0 0 0 0 0 0 0 -12 -23 -9 -19 -3 -8 -24 -32 -37 -17 -10 -10 -33 0 0 -26 -40 -285 -157 -57 -202 -222 -289 -310
0 0 0 0 0 0 0 0 0 0 0 0 0 0 0 0 0 0 0 0 0 0 0 0 0 0 0 0 0 0 -42 -38 -36 -4 -4 -24 -2 -17 -6 -3 -60 -23 -42 -6 -37 -34 -191 -243 -294 -366 -317 -235 -259 -248
0 0 0 0 0 0 0 0 0 0 0 0 0 0 0 0 0 0 0 0 0 0 0 0 0 0 0 0 0 0 -2 0 -78 -169 -18 -3 -1 -5 -5 -5 -3 -43 -86 -6 -42 -68 -162 -177 -220 -255 -262 -246 -255 -322
0 0 0 0 0 0 0 0 0 0 0 0 0 0 0 0 0 0 0 0 0 0 0 0 0 0 0 0 0 0 0 -95 -235 -163 -29 -7 -1 -37 -2 -12 -5 -14 -38 -46 -79 -107 -135 -132 -140 -178 -163 -161 -167 -165
0 0 0 0 0 0 0 0 0 0 0 0 0 0 0 0 0 0 0 0 0 0 0 0 0 0 0 0 0 0 0 0 0 -27 -19 -19 -29 -31 -30 -12 -6 -23 -32 -9 -5 -42 -61 -91 -89 -84 -101 -100 -83 -78
0 0 0 0 0 0 0 0 0 0 0 0 0 0 0 0 0 0 0 0 0 0 0 0 0 0 0 0 0 0 0 0 0 0 0 -3 -6 -102 -2 -1 -44 -49 -70 -55 -75 -87 -74 -81 -60 -46 -48 -72 -52 -26
0 0 0 0 0 0 0 0 0 0 0 0 0 0 0 0 0 0 0 0 0 0 0 0 0 0 0 0 0 0 0 0 0 0 0 0 0 -20 -17 -1 -62 -53 -49 -73 -67 -60 -57 -45 -16 -34 -55 -21 -13 -4
0 0 0 0 0 -1 -1 0 0 0 0 0 0 0 0 0 0 0 0 0 0 0 0 0 0 0 0 0 0 0 0 0 0 0 0 0 0 0 -1 -45 -50 -65 -41 -31 -33 -29 -29 -23 -18 -14 -32 -15 -1 -1
0 0 0 0 0 0 0 -1 0 0 0 0 0 0 0 0 0 0 0 0 0 0 0 0 0 0 0 0 0 0 0 0 0 0 0 0 0 0 -24 -33 -45 -65 -21 -10 -26 -18 -13 -10 -16 -13 -10 -1 -3 -12
0 0 0 0 0 0 -14 -10 0 0 0 0 0 0 0 0 0 0 0 0 0 0 0 0 0 0 0 0 0 0 0 0 0 0 0 0 0 -52 -55 -66 -92 -92 -66 -46 -15 -8 -13 -6 -2 -5 -6 -2 0 -1
0 0 0 0 0 0 -4 0 0 0 0 0 0 0 0 0 0 -6 0 0 0 0 0 0 0 -1 0 0 0 0 0 0 0 0 0 0 -2 -28 -59 -64 -74 -51 -44 -38 -33 -22 -9 -1 -3 -1 -1 -11 -10 -2
0 0 0 0 0 0 -6 0 0 0 0 0 0 -8 -2 -1 -1 -8 0 0 0 0 0 0 0 0 0 0 -2 0 -2 0 -1 0 0 0 -11 -49 -52 -49 -41 -30 -20 -13 -9 -6 -2 -1 -1 -1 -1 -5 -19 -2
0 0 0 0 0 -6 -27 0 0 0 0 0 0 0 0 -1 -1 0 0 0 0 0 0 0 0 0 0 -26 -5 0 0 -2 0 0 0 -3 -35 -69 -47 -39 -33 -24 -15 -7 -5 -1 0 -1 -5 0 -1 0 0 -2
0 0 0 0 0 0 -2 0 0 0 0 0 0 0 -1 0 -2 0 0 0 0 0 0 0 0 -22 -23 -13 -7 -1 -4 0 0 0 0 -9 -39 -39 -37 -41 -32 -28 -17 -1 0 -1 -1 -2 -4 -14 -11 -9 -3 -4
0 0 0 0 0 0 0 0 0 0 0 -4 -7 0 0 0 -3 -1 -4 0 -29 -162 0 -63 -98 -23 -10 -11 -4 -14 0 0 0 0 -1 -11 -39 -35 -22 -15 -6 -4 -1 0 0 -1 0 -1 0 -1 -1 -1 -10 0
0 0 0 0 0 -1 0 0 -2 0 -4 -1 0 -7 0 0 0 0 0 -15 -79 0 0 -65 -9 -3 -2 -3 -9 0 0 0 0 -2 -16 -36 -34 -24 -15 -8 -3 -2 -13 -47 -19 -10 -10 -1 -1 0 -1 -4 0 0
0 -1 0 0 0 -1 0 0 0 0 0 -1 -1 -26 0 -1 0 -30 -35 -16 -35 -80 0 -13 -3 -1 -19 0 0 0 -1 -2 -15 -24 -32 -40 -41 -29 -15 -13 0 -1 -4 -14 -17 -9 -1 0 -1 0 -1 -10 0 0
0 0 -8 0 0 0 0 0 0 0 0 -2 -1 -4 -3 -32 -26 -25 -50 -56 -67 -35 -18 -2 -13 -3 0 0 -1 -5 -20 -44 -29 -34 -43 -29 -27 -30 -11 0 0 -1 -15 -3 0 0 0 0 0 0 -9 -15 -19 -15
-1 -4 -3 0 -1 0 0 0 0 0 0 -2 -27 -19 -27 -18 -47 -52 -40 -72 -30 -19 -14 -3 -4 -9 -2 -12 -9 -16 -36 -32 -44 -47 -33 -19 -12 -7 -1 -1 0 -6 -5 0 0 0 0 -1 -2 -10 -4 -2 -3 -5
-19 -9 0 -5 -4 -5 0 0 0 0 -1 -6 -6 -7 -11 -15 -68 -44 -42 -42 -21 -4 -2 -3 -5 -11 -5 -33 -29 -29 -38 -48 0 -14 -32 -27 -18 -9 0 -1 0 -1 -8 -2 0 -31 -1 -9 -5 -8 -1 -2 -2 -1
0 0 -2 -3 -3 0 0 0 0 0 -1 -2 -6 0 -28 -74 -18 -13 -21 -16 -3 -4 -7 -12 -27 -69 -69 -39 -11 -18 -36 -22 -2 -1 -1 -2 -2 -26 -1 -1 -1 -2 -1 -4 0 -1 -1 0 -2 -1 -1 -1 -1 -6
0 -3 -1 -1 0 0 -1 0 0 -3 0 -2 -1 -2 -2 -2 -13 -34 -20 -7 -12 -15 -9 -4 -10 -18 -26 -26 -20 -5 -16 -24 -61 0 0 0 -1 -19 -20 -31 0 -5 -4 -3 0 0 0 -1 -1 -1 -1 -2 -8 -2
-2 -3 -2 0 0 0 0 -4 0 -1 -1 -1 -2 -11 -10 -16 -23 -22 -5 -6 -13 -35 -18 -16 -16 -3 -3 -8 -8 -8 -8 -3 -22 -61 -33 -1 -1 -1 -1 -1 -14 -1 -3 -9 -2 -1 -6 -14 -18 -2 -2 0 -1 -1
-6 0 0 0 0 0 -3 0 0 0 -5 -19 -17 -7 -4 -2 -5 -2 -2 -1 -12 -24 -10 -12 -6 -2 -2 -6 0 0 0 -1 -26 -56 -100 -100 0 -18 -8 -16 -16 -20 -29 -14 -1 0 -9 -1 -11 -5 -1 0 -7 -13
0 0 -1 0 0 0 0 0 0 0 0 0 0 0 -3 -6 -1 -1 0 -1 -9 -4 -5 -3 -5 0 -1 -1 -1 0 -16 -9 -3 -19 -33 -1 -1 -2 -7 -3 -8 0 -5 -1 -1 -6 -1 -1 -1 -2 -2 -1 -3 0
0 0 0 0 0 0 0 0 0 0 0 0 0 0 0 -1 0 -2 -1 -6 -4 -11 -2 -1 -1 -4 -3 -8 -7 -1 -1 -3 -2 -2 -1 -1 -1 -4 -2 -1 -1 -1 -8 -4 -4 -2 -2 -3 -2 -1 -1 -2 -10 -8
-1 0 0 0 0 0 0 0 0 0 -1 -1 -1 -1 0 -1 0 -1 -8 -5 -1 -4 -12 -8 -6 -1 -1 0 -1 -4 -13 -6 -2 -1 -1 -1 -2 -22 -1 -1 -1 -1 -3 -3 -3 -2 -2 -1 0 -1 -2 -2 -2 -2
0 0 0 0 -13 0 -1 0 -1 -1 -1 -2 -1 -1 0 -1 -1 -4 -1 -4 -5 -10 -4 -4 -8 -2 -2 -1 -1 -1 -20 -3 -3 -4 -1 -3 -2 -1 -2 -1 -2 -13 -11 -2 -3 -1 -4 -2 -4 -3 -1 -3 -2 -4
0 0 -1 0 0 0 0 0 -1 0 -8 0 -1 -1 0 -1 -1 -3 -1 -3 -8 0 -1 -1 -1 -1 -1 -2 -2 -1 -2 -1 -1 -3 -2 -1 -2 -5 -1 -1 -2 -2 -3 -3 -10 -23 -6 -4 -3 -3 -4 -4 -3 -4
0 0 0 0 0 -1 0 -1 -1 -5 0 0 0 -1 -1 -1 -1 -4 -1 -2 -1 -1 -1 -1 -13 -10 -2 -1 -5 -2 -2 -7 -33 -5 -8 -2 -3 -20 -26 -2 -3 -2 -2 -2 -3 -3 -46 -47 -42 -42 -31 -18 -7 -2
0 0 0 -1 0 -1 -1 -1 -1 -1 0 0 -1 -1 -4 -3 -8 -21 -5 -5 -8 -7 -1 -2 0 0 -1 -1 -1 -1 -9 -20 -8 -3 -4 -7 -14 -17 -33 -22 -3 -7 -27 -19 -12 -7 -4 -2 -2 -2 -3 -3 -4 -8
0 0 0 -1 0 -1 0 0 -1 -1 -1 -2 -1 -4 -13 -1 0 -4 -28 -41 -11 -12 -40 -17 -7 -3 -5 -18 -11 -10 -17 -6 -18 -18 -16 0 -1 -30 -5 -20 -16 -17 -14 -8 -2 -3 -3 -3 -4 -13 -31 -23 -6 -4
0 -1 -2 -3 -1 -1 -4 -4 -4 0 -1 0 -1 -1 -1 0 -1 -5 -6 -6 -3 -6 -8 -6 -2 -2 -5 -7 -3 -3 -14 -1 -3 -31 -52 -56 -68 -65 -53 -62 -43 -36 -29 -26 -6 -6 -2 -1 -2 -10 -9 0 -54 -34
Wind_Speed
23 23 22 18 13 5 3 5 5 3 3 3 5 7 10 14 17 20 20 20 21 23 28 25 23 20 21 18 18 19 18 13 14 17 20 19 22 21 24 22 23 23 22 22 26 29 31 19 15 23 19 17 20 21
21 20 20 18 15 8 3 5 5 4 3 3 4 7 11 13 15 18 20 19 19 22 24 28 31 29 22 25 22 19 18 17 18 19 15 21 23 19 26 24 20 23 22 21 21 20 17 16 16 16 17 19 21 22
20 19 19 17 15 8 3 4 5 4 3 3 3 7 10 13 15 19 22 21 21 24 28 23 21 15 18 26 26 20 16 18 19 19 20 19 22 20 16 20 19 18 17 19 17 16 14 13 14 15 16 18 19 20
18 18 18 17 15 12 3 4 5 5 4 2 2 6 10 14 16 19 19 21 21 22 22 16 16 21 20 16 23 24 23 19 19 19 19 20 19 15 16 16 18 16 12 14 10 9 10 12 13 15 16 17 18 20
15 16 18 16 15 13 5 4 4 5 4 2 3 5 8 14 17 22 22 22 23 21 22 24 26 18 20 17 21 20 22 24 24 23 19 17 17 15 15 15 11 14 10 11 13 10 12 12 12 14 16 18 20 23
14 16 17 17 16 14 11 1 4 5 5 3 3 4 9 15 18 19 18 15 22 20 21 21 18 17 16 15 18 17 20 21 22 22 18 13 14 20 16 15 12 10 11 14 13 13 12 13 14 16 18 21 23 25
15 15 16 16 16 15 13 6 2 5 4 2 2 4 9 13 16 18 18 16 16 19 19 22 17 14 16 15 17 18 17 18 19 16 15 14 12 15 14 17 10 10 11 12 11 10 12 14 18 19 20 22 23 23
15 15 15 15 16 16 13 9 1 3 4 3 2 5 10 15 20 19 15 8 15 20 18 19 20 15 15 17 18 17 16 14 13 15 13 14 12 15 16 12 10 10 10 11 13 13 13 13 17 18 19 20 20 20
15 15 16 15 16 16 14 9 2 3 3 2 3 6 13 17 18 18 16 12 6 18 21 20 21 14 12 18 16 13 15 14 14 16 14 16 13 15 12 10 10 11 11 11 15 15 14 16 18 17 17 18 19 19
14 14 16 16 17 17 14 7 1 5 5 3 7 12 15 16 15 14 17 18 17 20 22 25 24 21 15 16 15 16 17 15 15 14 14 19 13 13 11 11 11 12 11 10 13 13 14 15 17 18 18 18 17 19
14 15 16 16 17 17 10 2 6 7 3 9 11 12 14 11 15 18 22 22 20 23 25 28 27 23 19 21 16 18 16 14 17 13 18 15 13 8 9 10 11 11 11 11 12 14 16 16 17 17 17 16 16 19
15 17 18 17 16 15 3 7 10 5 8 8 10 11 11 14 18 22 24 24 24 25 22 26 25 21 16 18 17 15 15 14 17 11 17 17 12 9 8 10 11 11 12 12 14 15 14 14 16 16 16 16 16 18
18 18 17 15 14 10 8 10 6 3 1 9 14 15 15 16 23 28 30 27 27 22 23 20 19 19 16 18 17 15 15 16 11 15 17 17 10 10 10 10 10 11 12 13 14 15 13 14 16 16 15 16 18 20
19 17 15 14 12 10 12 11 8 6 11 12 12 17 20 21 28 29 30 25 22 21 21 21 18 19 17 16 15 15 14 13 15 17 17 13 10 9 9 10 10 11 13 14 15 15 14 14 14 15 16 17 19 20
18 17 15 14 13 12 15 12 10 14 13 15 18 23 29 29 26 26 27 26 23 20 19 19 18 19 16 15 17 14 12 15 15 16 15 11 8 8 9 11 11 13 14 16 18 18 17 16 16 15 16 17 18 20
14 13 17 16 15 15 16 11 13 15 16 21 25 28 27 30 31 28 28 30 23 20 21 22 19 20 17 18 16 14 14 16 13 13 12 8 8 8 9 11 13 14 15 18 18 16 16 15 15 14 13 14 16 19
4 11 9 16 20 17 16 17 20 21 26 27 31 32 29 27 27 25 24 28 23 22 23 22 20 17 14 17 14 16 17 13 11 11 9 8 8 8 10 12 12 12 14 18 18 15 13 13 12 11 11 13 15 17
7 14 9 27 31 27 26 26 25 28 29 31 28 26 26 25 25 26 27 27 28 28 26 20 15 17 16 15 14 14 13 12 11 8 8 8 8 10 10 11 11 13 18 19 17 14 9 8 10 10 11 12 13 14
35 43 51 50 42 33 30 31 28 26 29 26 28 23 23 24 25 25 27 29 26 21 15 15 15 16 15 16 13 10 8 7 8 8 8 8 9 9 10 9 10 13 17 18 16 14 13 10 13 9 10 10 10 11
51 55 51 45 40 29 29 26 29 24 25 22 24 27 25 24 25 25 23 22 20 17 14 15 15 14 14 11 11 9 9 8 8 9 10 8 9 9 8 8 9 11 8 8 9 9 10 9 9 8 9 10 9 9
44 43 40 36 31 26 22 26 25 25 26 26 25 24 24 24 22 18 16 20 14 15 15 13 9 10 9 9 10 10 10 12 12 17 11 9 8 8 7 7 7 7 7 10 8 8 9 11 11 9 9 10 9 8
31 29 28 25 23 24 25 21 24 27 26 29 29 27 23 15 12 17 19 16 13 9 9 7 7 7 8 9 10 12 12 13 15 14 15 14 9 7 7 8 9 10 12 14 10 7 7 10 10 10 10 9 8 8
25 23 22 22 22 19 22 19 24 23 27 23 20 18 15 16 18 18 15 14 15 15 14 11 8 9 9 10 12 14 15 18 19 19 13 9 11 12 13 13 13 11 12 15 13 10 8 10 8 9 9 9 9 9
23 22 18 19 19 20 21 21 17 19 19 19 16 16 15 16 16 13 11 12 14 16 20 20 19 16 12 11 14 16 17 19 20 18 15 11 10 13 14 14 14 13 14 12 10 8 7 7 7 8 9 11 8 5
19 17 20 20 20 24 22 21 19 18 17 14 13 14 16 16 14 13 11 11 8 13 14 14 14 15 15 15 17 18 18 18 18 17 15 13 13 13 13 14 13 13 12 10 9 7 7 7 7 7 14 15 18 17
19 17 19 19 20 20 19 21 18 16 14 13 13 16 17 14 12 10 10 10 12 13 14 15 15 14 16 18 19 18 15 14 15 15 13 12 13 13 13 13 12 12 11 10 9 8 7 7 7 10 15 19 17 17
18 16 15 16 18 19 18 17 15 13 14 16 16 16 13 11 11 11 11 13 14 14 15 15 16 18 20 19 17 15 13 13 14 15 15 14 13 13 11 13 13 13 13 13 12 7 10 9 13 12 4 22 21 13
18 16 17 16 16 15 16 15 14 14 13 12 14 11 11 12 13 13 14 14 15 15 16 16 17 19 20 19 18 16 11 11 12 12 12 12 11 13 11 9 15 16 19 17 10 5 5 5 5 3 12 18 25 17
16 15 16 12 13 12 10 11 10 9 9 10 10 11 13 14 14 15 15 16 16 14 12 9 13 12 14 16 14 12 9 9 11 10 11 12 11 16 16 13 10 8 8 6 5 3 5 12 17 23 24 24 22 17
14 13 15 10 8 9 9 9 6 8 8 10 13 16 16 16 15 16 16 17 15 15 19 16 9 14 14 14 12 13 13 11 15 18 16 16 19 19 18 17 18 16 11 11 13 12 6 6 10 15 15 16 16 16
15 14 11 8 8 6 7 8 8 9 11 10 10 9 11 12 14 15 15 14 13 13 13 13 13 13 13 13 16 17 18 15 10 17 21 23 23 16 17 21 24 16 14 11 10 11 13 12 10 9 11 13 14 15
13 13 15 14 14 13 11 10 10 6 5 4 8 13 14 16 15 7 6 6 11 17 18 19 20 21 20 20 18 20 19 16 19 20 23 28 30 27 24 18 17 23 23 19 16 14 10 13 18 22 20 16 15 15
18 18 18 20 18 17 16 18 18 17 14 13 19 18 23 23 23 17 15 19 20 21 20 20 17 18 17 11 8 6 7 10 13 12 15 20 22 24 25 23 19 17 15 17 26 25 17 15 17 20 22 21 19 18
Wind_Direction
317 319 324 333 342 7 130 145 144 131 111 81 26 6 354 325 312 297 290 283 279 278 266 268 273 293 282 281 273 284 282 309 297 287 284 278 279 277 276 278 275 275 274 271 266 266 267 289 290 271 286 302 306 307
322 328 330 335 338 1 97 132 132 127 107 98 19 358 343 335 323 306 283 285 284 279 277 268 251 236 210 243 263 273 281 294 296 292 306 285 283 295 269 273 278 275 276 281 278 281 291 296 293 295 299 300 305 310
330 334 332 337 341 352 62 117 128 119 112 106 31 349 338 334 322 300 279 280 279 280 273 273 276 292 281 231 229 265 288 286 289 297 301 301 285 294 301 280 285 288 289 283 282 291 299 302 307 308 307 307 311 316
330 336 336 333 330 335 61 117 130 133 126 110 45 346 332 322 319 295 295 277 275 278 273 290 289 273 269 259 203 251 267 287 295 300 303 299 296 309 304 302 288 300 301 294 304 312 318 316 315 314 315 316 316 319
332 336 331 332 330 328 358 131 138 136 126 106 72 348 335 318 312 292 290 273 266 268 270 270 273 277 270 274 268 279 274 249 244 264 297 298 297 299 300 298 314 304 306 305 298 318 314 321 326 324 321 319 317 314
332 327 326 329 327 325 323 13 148 148 142 119 74 355 324 308 309 295 291 293 261 269 272 270 286 279 278 281 279 291 284 283 274 274 291 316 305 267 281 295 323 336 322 310 300 313 315 318 329 325 320 320 319 317
321 321 322 325 326 320 318 328 140 153 146 129 53 349 323 315 307 288 290 291 281 265 273 269 282 282 272 283 285 285 291 287 279 292 302 309 315 299 305 290 320 340 340 338 340 346 333 322 313 321 322 322 324 325
318 318 318 321 322 320 315 314 282 152 141 123 33 349 321 309 296 288 298 337 278 266 277 272 269 278 265 270 275 280 278 289 304 298 307 301 315 298 298 321 323 326 337 345 341 336 336 338 328 327 327 327 331 332
316 317 314 315 317 315 312 308 282 157 140 107 13 349 319 298 291 294 306 320 308 269 264 264 260 278 270 264 274 283 279 288 293 282 293 286 300 294 319 331 332 328 337 342 332 335 336 327 327 332 334 334 330 332
311 314 309 306 308 310 308 302 199 136 124 96 326 314 306 301 301 295 282 277 275 263 259 251 253 258 260 261 264 261 266 275 280 291 293 268 304 320 337 341 342 343 350 358 344 346 344 338 330 328 328 329 331 324
306 305 303 301 300 302 303 170 140 129 112 297 304 304 306 309 295 275 261 260 263 258 251 243 243 246 251 239 252 260 271 288 281 298 278 302 316 350 2 0 352 359 8 8 355 347 344 339 332 331 331 329 326 322
299 296 295 294 294 296 194 154 150 252 282 289 301 298 298 292 276 261 255 255 254 251 250 239 240 247 255 254 257 272 284 295 288 311 293 303 324 347 351 351 355 357 1 357 346 339 341 342 334 332 330 327 325 326
291 290 288 286 284 281 174 162 186 218 253 286 290 280 280 277 260 248 241 245 246 253 243 239 239 242 251 255 266 278 287 292 325 302 300 311 337 340 343 347 358 355 350 341 334 335 339 338 332 331 334 329 327 322
285 282 280 276 269 259 183 178 175 225 281 287 281 272 266 264 249 245 240 246 249 253 239 230 234 241 249 258 278 285 299 306 306 306 306 320 335 346 353 358 0 355 338 330 328 327 328 331 332 332 329 323 326 327
282 275 268 263 249 240 185 184 198 257 275 278 272 263 250 245 247 244 244 245 243 243 228 229 236 243 251 270 274 295 303 302 310 314 319 336 357 6 4 1 355 343 332 324 317 316 317 322 325 329 328 332 336 333
275 263 256 245 230 218 185 195 236 263 267 262 253 240 237 233 233 236 235 225 232 233 226 229 239 247 261 270 280 288 299 301 316 327 340 3 12 13 10 0 348 337 330 322 319 325 323 323 324 331 340 339 340 342
249 281 225 217 214 180 182 228 234 242 232 226 221 223 228 231 231 231 229 222 226 225 225 225 239 256 276 271 281 288 292 313 331 345 0 15 30 19 5 355 2 1 351 335 327 332 329 324 338 342 346 353 349 352
258 244 182 197 190 189 208 214 212 207 207 208 211 218 228 230 223 222 214 208 205 208 215 232 252 255 267 276 289 296 308 323 340 4 18 22 32 35 25 27 33 10 334 338 335 336 347 358 349 346 349 356 4 16
165 171 169 172 179 184 189 196 205 199 199 209 212 222 217 212 205 199 198 196 204 216 226 241 261 262 273 281 302 326 349 353 4 21 26 28 54 42 10 37 54 4 346 339 334 331 315 345 330 349 350 5 17 31
141 144 158 166 172 178 178 186 191 197 197 204 198 194 191 192 190 189 193 199 209 220 241 254 267 274 282 303 309 318 320 337 26 355 355 44 88 96 98 98 105 34 69 91 115 97 128 45 33 25 6 5 18 39
140 150 159 167 174 176 183 177 181 180 171 175 180 181 178 178 182 188 197 199 221 236 241 262 286 298 302 299 303 318 318 312 315 286 352 44 77 106 86 85 65 57 48 14 37 18 7 352 357 31 17 3 17 43
155 161 171 183 181 177 178 184 174 168 169 165 164 170 173 173 181 186 189 200 213 243 264 292 304 299 291 301 314 311 328 331 322 331 328 334 31 49 39 21 14 5 344 335 358 28 15 358 18 23 2 28 56 31
163 168 170 174 167 168 169 171 166 173 167 171 175 175 179 180 182 190 200 201 199 200 202 228 290 298 325 324 318 318 310 286 298 292 351 33 15 2 356 350 346 353 341 321 332 354 10 358 24 2 1 357 344 358
165 166 164 166 167 166 170 171 177 173 171 172 179 180 186 187 191 193 202 209 204 194 157 93 88 69 54 29 329 317 319 313 310 325 349 3 10 359 354 349 345 341 335 338 351 358 23 43 20 10 352 338 18 51
158 159 157 155 163 162 169 169 169 172 174 180 186 193 195 198 202 209 223 235 290 45 47 52 43 56 31 14 333 321 326 322 325 328 349 0 8 14 13 4 7 351 347 352 0 24 33 354 28 19 318 320 300 310
155 159 160 162 165 168 169 169 175 180 187 197 201 196 196 208 232 253 282 322 15 32 10 10 9 23 8 336 321 318 340 347 345 348 8 22 27 31 34 47 32 16 2 357 25 22 7 63 41 350 315 302 309 296
158 161 165 169 167 168 169 170 179 187 187 187 190 199 220 251 287 317 350 358 12 8 14 16 7 349 332 318 317 319 342 360 4 359 10 25 34 19 100 83 98 111 107 126 136 43 352 349 332 335 10 296 304 329
158 159 156 162 164 171 172 178 183 190 198 214 219 255 282 319 7 354 14 19 15 16 12 1 343 328 309 308 308 320 359 10 11 13 18 20 91 121 89 24 337 331 299 317 357 83 124 143 13 29 333 318 307 322
166 171 168 167 173 179 190 197 207 226 241 256 342 342 356 1 5 13 11 1 6 23 40 63 33 60 34 9 10 14 28 44 21 66 48 8 23 341 348 17 37 58 59 62 57 85 7 331 315 302 302 306 317 326
171 177 172 180 187 192 199 207 235 245 294 321 1 32 35 21 332 305 278 268 243 246 313 311 303 200 214 209 132 105 100 80 231 285 341 342 326 332 335 346 340 350 5 6 354 351 359 340 327 319 318 317 317 317
177 180 188 200 208 244 266 251 240 230 211 217 222 278 309 314 322 324 307 288 182 168 167 163 66 53 52 44 24 6 353 1 70 346 318 309 317 347 344 324 317 353 358 3 3 358 350 345 336 320 308 304 303 301
193 193 180 178 175 181 194 199 197 217 220 225 190 170 158 145 145 176 194 268 316 354 9 22 25 18 13 6 6 3 3 354 337 337 331 313 305 310 320 334 328 322 328 335 337 339 342 339 335 331 326 312 300 292
160 161 158 157 162 162 161 154 155 156 162 164 134 136 107 106 90 94 91 45 348 351 345 8 39 40 44 73 82 101 65 38 13 1 343 328 323 324 321 324 330 336 336 333 322 319 323 320 323 327 329 326 319 310